[[{"header":{"parameterUnit":"m.s-1","parameterCategory":1,"la1":30.2991,"la2":30.254,"lo1":-89.0895,"lo2":-89.0444,"dy":0.0017,"dx":0.0017,"nx":28,"ny":28,"refTime":"2025-07-09T21:00:00:Z","depth":0,"parameterNumber":2,"parameterNumberName":"U-component_of_WINDS"},"data":[0,0,0,0,0,0,0,0,0,0,0,0,0,0,0,0,0,0,0,0,0,0,0,0,0,0,0,0,0,0,0,0,0,0,0,0,0,0,0,0,0,0,0,0,0,0,0,0,0,0,0,0,0,0,0,0,0,0,2.9182,2.9183,0,2.9269,2.927,2.9271,2.9288,2.9288,2.9287,2.9286,2.9377,2.9379,2.9382,0,0,0,0,0,0,0,0,0,0,0,0,0,2.9034,2.9037,2.9182,2.9183,2.9185,2.9269,2.927,2.9271,2.9288,2.9288,2.9287,2.9286,2.9376,2.9379,2.9383,0,0,0,0,0,0,0,0,0,0,0,0,0,2.9107,2.9038,2.9182,2.9203,2.9206,2.9268,2.927,2.9271,2.9289,2.9288,2.9287,2.9286,2.9374,2.9379,2.9383,2.9431,0,0,2.9397,2.9399,0,0,0,0,0,0,0,0,2.9103,2.9113,2.9199,2.9202,2.9205,2.9267,2.9251,2.9325,2.9289,2.9257,2.9286,2.9285,2.9341,2.9348,2.9367,2.9435,2.9439,2.9397,2.94,2.9402,2.9403,0,0,0,0,0,0,0,2.9098,2.9109,2.9217,2.92,2.9204,2.9209,2.9218,2.9265,2.9304,2.926,2.9261,2.9271,2.9342,2.9362,2.9369,2.944,2.9397,2.9401,2.9404,2.9406,2.9553,2.9554,0,0,0,0,0,0,2.9089,2.9105,2.9214,2.9219,2.9151,2.9213,2.9223,2.9248,2.9303,2.9311,2.9272,2.9272,2.9355,2.9363,2.9372,2.9431,2.9402,2.9406,2.9409,2.9551,2.9553,2.9554,0,0,0,0,0,0,2.9086,2.9099,2.921,2.9163,2.9177,2.9216,2.9244,2.925,2.927,2.9312,2.932,2.9285,2.9354,2.9366,2.9416,2.9434,2.9408,2.9412,2.955,2.9552,2.9554,2.9549,0,0,0,0,0,0,2.9082,2.9097,2.9115,2.9163,2.918,2.9252,2.9245,2.9253,2.9278,2.9278,2.9326,2.9333,2.9355,2.9409,2.9421,2.944,2.9416,2.9549,2.9551,2.9553,2.9548,2.9551,2.9553,0,0,0,0,0,2.9076,2.9111,2.9116,2.9129,2.9203,2.9253,2.9263,2.9286,2.9279,2.9298,2.9325,2.9332,2.9431,2.9414,2.9427,2.9448,2.9547,2.955,2.9553,2.9547,2.955,2.9553,0,0,0,0,0,0,2.9065,2.9118,2.9124,2.9175,2.921,2.9256,2.928,2.9289,2.9326,2.9325,2.9353,2.9364,2.9412,2.9436,2.9416,2.9498,2.9489,2.9494,2.948,2.9484,2.9486,2.9479,2.942,0,0,0,0,0,2.9069,2.9105,2.9149,2.919,2.9207,2.9241,2.9264,2.9279,2.9315,2.933,2.9361,2.9397,2.9436,2.9462,2.95,2.9552,2.9563,2.9573,2.9576,2.9578,2.9582,2.961,2.9615,2.9563,2.9563,2.9563,0,0,2.9077,2.911,2.9131,2.9189,2.9217,2.9254,2.9253,2.9292,2.932,2.9336,2.9385,2.941,2.9452,2.9503,2.9527,2.9524,2.9599,2.9581,2.9582,2.9585,2.9614,2.9618,2.9623,2.9565,2.9564,2.9564,0,0,2.9109,2.9138,2.9175,2.9204,2.9247,2.9269,2.9278,2.9323,2.934,2.9389,2.9402,2.9436,2.9504,2.9533,2.9556,2.9601,2.9608,2.9613,2.9626,2.9653,2.9657,2.9661,2.9676,2.9681,2.9617,2.9617,2.9617,0,2.9113,2.9169,2.9193,2.9232,2.9257,2.9274,2.9311,2.9338,2.9392,2.9409,2.9405,2.9489,2.9519,2.9576,2.9587,2.9606,2.9617,2.9607,2.9655,2.9659,2.9663,2.9677,2.9683,2.9617,2.9617,2.9617,2.9617,0,2.9171,2.921,2.9235,2.9285,2.9314,2.9352,2.9382,2.9408,2.9421,2.9444,2.9494,2.9531,2.9576,2.9592,2.9605,2.9652,2.9648,2.9649,2.9641,2.9667,2.9681,2.9687,2.9617,2.9617,2.9617,2.9617,0,0,2.9198,2.9262,2.9271,2.9294,2.9343,2.9373,2.9412,2.9457,2.9478,2.9515,2.9548,2.9605,2.9606,2.9633,2.965,2.9674,2.9706,2.9672,2.9674,2.9676,2.9759,2.9756,2.9763,2.9712,2.9713,2.9714,2.9755,0,2.9235,2.9305,2.9328,2.9386,2.9422,2.9439,2.9473,2.9507,2.9529,2.9564,2.9589,2.9628,2.9628,2.9644,2.9669,2.9697,2.9723,2.9694,2.9743,2.9744,2.973,2.977,2.9768,2.9804,2.9761,2.9762,2.9762,0,2.9288,2.9325,2.9386,2.943,2.9446,2.9476,2.9519,2.9551,2.959,2.9605,2.9635,2.9651,2.9693,2.9683,2.9741,2.9721,2.9743,2.976,2.9762,2.9766,2.9754,2.9774,2.9817,2.9821,2.9771,2.9771,2.977,0,2.9299,2.9365,2.9409,2.9429,2.9482,2.9503,2.9526,2.9564,2.959,2.9627,2.9644,2.9686,2.9709,2.9742,2.9768,2.9759,2.9823,2.9816,2.9837,2.9836,2.9848,2.9847,2.9893,2.9865,2.9864,2.9864,2.9864,0,2.9337,2.9374,2.9415,2.9442,2.9484,2.9511,2.9552,2.9576,2.961,2.9643,2.9661,2.9691,2.9725,2.976,2.9781,2.9825,2.9836,2.9849,2.9854,2.9847,2.9845,2.986,2.9858,2.9866,2.9866,2.9865,2.9865,0,2.9357,2.9386,2.9435,2.9482,2.9495,2.9523,2.9563,2.9591,2.9615,2.9656,2.9667,2.9705,2.9747,2.9777,2.9831,2.9845,2.9893,2.9898,2.9879,2.9881,2.9899,2.9897,2.9956,2.9965,2.9932,2.9932,2.9932,0,2.9378,2.9406,2.9456,2.9479,2.9502,2.9539,2.9565,2.9593,2.962,2.9667,2.9688,2.9732,2.9767,2.9834,2.9866,2.9908,2.9914,2.9932,2.992,2.9912,2.9913,2.991,2.9913,2.9933,2.9933,2.9934,2.9934,0,2.9413,2.9426,2.9462,2.9504,2.9534,2.9568,2.9602,2.962,2.9655,2.9684,2.9726,2.9754,2.981,2.9852,2.9897,2.9922,2.9934,2.9938,2.9944,2.9936,2.9923,2.9929,2.9882,2.9936,2.9935,2.9935,2.9935,2.9935,2.9433,2.9459,2.9498,2.9538,2.9567,2.9598,2.9626,2.9654,2.969,2.9737,2.9752,2.9796,2.9835,2.9897,2.9922,2.9957,2.9956,2.9966,2.9969,2.997,2.9969,2.9919,2.9966,2.9966,2.9966,2.9966,2.9966,0,2.9468,2.9494,2.953,2.9578,2.9609,2.9618,2.9656,2.9682,2.972,2.9756,2.9791,2.984,2.9882,2.9918,2.9961,2.9982,2.9989,2.9992,2.999,2.9996,2.9968,2.9958,2.9986,2.9986,2.9986,2.9986,2.9986,2.9986,2.949,2.9533,2.9551,2.961,2.9636,2.9679,2.97,2.973,2.9758,2.9812,2.9846,2.987,2.9905,2.9951,2.999,2.9999,3.0014,3.0016,3.0027,3.0,2.9998,2.9995,2.9985,3.002,3.002,3.0051,3.0052,3.0052]},{"header":{"parameterUnit":"m.s-1","parameterCategory":1,"la1":30.2991,"la2":30.254,"lo1":-89.0895,"lo2":-89.0444,"dy":0.0017,"dx":0.0017,"nx":28,"ny":28,"refTime":"2025-07-09T21:00:00:Z","depth":0,"parameterNumber":3,"parameterNumberName":"V-component_of_WINDS"},"data":[0,0,0,0,0,0,0,0,0,0,0,0,0,0,0,0,0,0,0,0,0,0,0,0,0,0,0,0,0,0,0,0,0,0,0,0,0,0,0,0,0,0,0,0,0,0,0,0,0,0,0,0,0,0,0,0,0,0,4.6983,4.6984,0,4.7047,4.7048,4.7049,4.7076,4.7076,4.7076,4.7076,4.7134,4.7136,4.7137,0,0,0,0,0,0,0,0,0,0,0,0,0,4.6876,4.6878,4.6983,4.6984,4.6985,4.7047,4.7048,4.7049,4.7076,4.7076,4.7076,4.7076,4.7134,4.7136,4.7138,0,0,0,0,0,0,0,0,0,0,0,0,0,4.6929,4.6879,4.6983,4.7006,4.7009,4.7047,4.7048,4.7049,4.7076,4.7076,4.7076,4.7076,4.7133,4.7135,4.7138,4.7156,0,0,4.7145,4.7146,0,0,0,0,0,0,0,0,4.6926,4.6933,4.7002,4.7005,4.7008,4.7054,4.7032,4.7084,4.7076,4.705,4.7076,4.7076,4.7107,4.7112,4.7124,4.7158,4.7161,4.7145,4.7147,4.7148,4.7149,0,0,0,0,0,0,0,4.6923,4.6931,4.7008,4.7003,4.7006,4.701,4.7018,4.7042,4.7078,4.7053,4.7055,4.7062,4.7108,4.7121,4.7125,4.7162,4.7145,4.7148,4.7149,4.715,4.7213,4.7213,0,0,0,0,0,0,4.6916,4.6927,4.7006,4.701,4.6966,4.7012,4.7021,4.7039,4.7078,4.7084,4.7062,4.7063,4.7117,4.7122,4.7127,4.7151,4.7148,4.715,4.7152,4.7212,4.7213,4.7213,0,0,0,0,0,0,4.6914,4.6923,4.7004,4.6969,4.698,4.7015,4.7035,4.704,4.7053,4.7086,4.7092,4.7069,4.7117,4.7124,4.7149,4.7153,4.7151,4.7154,4.7212,4.7212,4.7213,4.7197,0,0,0,0,0,0,4.6911,4.6922,4.6931,4.697,4.6982,4.7026,4.7035,4.7042,4.7058,4.706,4.7094,4.7099,4.7118,4.7145,4.7151,4.7156,4.7156,4.7212,4.7212,4.7213,4.7197,4.7197,4.7196,0,0,0,0,0,4.6907,4.6923,4.6932,4.6941,4.6994,4.7026,4.7033,4.7056,4.7058,4.7067,4.7087,4.7098,4.7151,4.7147,4.7154,4.716,4.7212,4.7212,4.7213,4.7197,4.7197,4.7196,0,0,0,0,0,0,4.6881,4.6928,4.6938,4.6968,4.6993,4.7031,4.7042,4.7055,4.7078,4.7079,4.7104,4.7111,4.7133,4.7149,4.7144,4.7179,4.7182,4.7184,4.7168,4.7168,4.7167,4.7163,4.7158,0,0,0,0,0,4.688,4.6904,4.6943,4.6965,4.6977,4.7007,4.7022,4.7038,4.7064,4.7074,4.7097,4.712,4.7142,4.7155,4.7177,4.7199,4.7206,4.7207,4.7206,4.7206,4.7207,4.7219,4.7219,4.7214,4.7214,4.7214,0,0,4.6875,4.6904,4.6918,4.696,4.6982,4.7005,4.7016,4.704,4.7056,4.7077,4.7103,4.712,4.7147,4.717,4.7181,4.7184,4.721,4.7206,4.7205,4.7207,4.7219,4.722,4.722,4.7214,4.7214,4.7214,0,0,4.688,4.6904,4.6926,4.6947,4.698,4.7,4.7005,4.7041,4.7054,4.708,4.7096,4.7114,4.7152,4.7171,4.7185,4.7195,4.7205,4.7201,4.7198,4.7209,4.721,4.721,4.7213,4.7214,4.7202,4.7202,4.7202,0,4.687,4.6907,4.6934,4.6957,4.6975,4.6997,4.7017,4.7035,4.7073,4.7083,4.7086,4.7133,4.7153,4.718,4.7183,4.7194,4.7199,4.7198,4.7208,4.7209,4.7209,4.7213,4.7214,4.7201,4.7201,4.7201,4.7201,0,4.6893,4.6918,4.6931,4.6969,4.6988,4.7009,4.7036,4.7052,4.7065,4.7084,4.7109,4.7133,4.7161,4.7168,4.7181,4.7197,4.7198,4.7204,4.7208,4.7209,4.7212,4.7214,4.72,4.7201,4.7201,4.7201,0,0,4.6884,4.6937,4.6941,4.6959,4.6996,4.7015,4.7036,4.7065,4.7077,4.7101,4.7118,4.7149,4.7155,4.7171,4.7186,4.7196,4.7201,4.72,4.7201,4.72,4.722,4.7215,4.7217,4.7208,4.7209,4.7209,4.7218,0,4.6893,4.6936,4.6959,4.699,4.7013,4.7034,4.7052,4.7075,4.7093,4.7113,4.7131,4.7153,4.7159,4.7169,4.7179,4.7198,4.7206,4.7198,4.7223,4.7223,4.7216,4.7218,4.7214,4.7221,4.7219,4.7219,4.722,0,4.691,4.6937,4.6971,4.7006,4.7016,4.7033,4.706,4.708,4.7106,4.7118,4.7136,4.715,4.7171,4.7172,4.72,4.7194,4.7205,4.7216,4.7217,4.722,4.7222,4.7222,4.7224,4.7225,4.7222,4.7222,4.7222,0,4.69,4.6944,4.697,4.6984,4.7026,4.7036,4.7053,4.708,4.7095,4.7118,4.7128,4.7152,4.7166,4.7183,4.7203,4.7202,4.7228,4.7231,4.7237,4.7236,4.7241,4.7241,4.7246,4.7248,4.7248,4.7248,4.7248,0,4.6908,4.6928,4.6966,4.6982,4.7004,4.703,4.705,4.7069,4.7092,4.711,4.7128,4.7143,4.7169,4.7187,4.7202,4.7222,4.7228,4.7236,4.724,4.7235,4.7234,4.7243,4.7243,4.7248,4.7248,4.7248,4.7248,0,4.6901,4.6928,4.6957,4.6994,4.7004,4.7019,4.7049,4.7064,4.7082,4.7104,4.7111,4.7139,4.7161,4.7183,4.7212,4.7222,4.7242,4.7247,4.7234,4.7236,4.724,4.7239,4.7251,4.7253,4.7254,4.7254,4.7254,0,4.6905,4.6921,4.696,4.6975,4.6992,4.7015,4.7032,4.7057,4.7072,4.7103,4.7114,4.7138,4.7159,4.7193,4.7214,4.7236,4.7242,4.7244,4.7245,4.7239,4.7242,4.7241,4.7242,4.7244,4.7244,4.7244,4.7243,0,4.6908,4.6921,4.6945,4.6974,4.6994,4.7017,4.704,4.705,4.7079,4.7095,4.712,4.7136,4.7167,4.719,4.7215,4.7229,4.724,4.7243,4.7245,4.724,4.7232,4.7237,4.7232,4.7243,4.7243,4.7243,4.7243,4.7243,4.6907,4.6922,4.6952,4.6978,4.6999,4.702,4.7036,4.7057,4.7079,4.7108,4.712,4.7144,4.7168,4.7203,4.7217,4.7235,4.7238,4.7241,4.7242,4.7242,4.7241,4.7229,4.7239,4.7239,4.7239,4.7239,4.7239,0,4.6911,4.6932,4.6956,4.6989,4.7009,4.702,4.7046,4.7062,4.7084,4.7106,4.7127,4.7154,4.7176,4.72,4.7223,4.7232,4.7238,4.7237,4.7237,4.724,4.7238,4.7234,4.7232,4.7232,4.7232,4.7232,4.7232,4.7232,4.6916,4.6942,4.6958,4.6994,4.7013,4.7039,4.7053,4.7072,4.7091,4.7121,4.7141,4.7156,4.7178,4.7203,4.7223,4.7229,4.7237,4.7235,4.7242,4.724,4.724,4.7241,4.7237,4.7236,4.7236,4.7243,4.7243,4.7243]}]]